This is the latest recevied weather packets stored in our database for station/object N4BBA. If no packets are shown the sender has not sent any weather packets the latest 1 day(s).
| Time | Temp. | Humidity | Pressure | Rain* | Wind** | Luminosity | Snow |
|---|---|---|---|---|---|---|---|
| 1778004975 | 26.11° C | 46% | 1015.8 hPa | 0 mm | 1.79 m/s, 228° | 795 W/m² | - |
| 1778004672 | 26.67° C | 46% | 1016.1 hPa | 0 mm | 2.68 m/s, 184° | 729 W/m² | - |
| 1778004368 | 26.11° C | 47% | 1016.1 hPa | 0 mm | 1.79 m/s, 158° | 821 W/m² | - |
| 1778004066 | 25.56° C | 48% | 1016.2 hPa | 0 mm | 2.68 m/s, 158° | 341 W/m² | - |
| 1778003761 | 26.11° C | 46% | 1016.1 hPa | 0 mm | 3.58 m/s, 197° | 836 W/m² | - |
| 1778003458 | 26.11° C | 47% | 1016 hPa | 0 mm | 1.79 m/s, 187° | 856 W/m² | - |
| 1778003155 | 26.11° C | 48% | 1016.2 hPa | 0 mm | 2.24 m/s, 213° | 850 W/m² | - |
| 1778002850 | 26.11° C | 48% | 1016 hPa | 0 mm | 4.02 m/s, 236° | 860 W/m² | - |
| 1778002548 | 26.11° C | 48% | 1015.9 hPa | 0 mm | 4.92 m/s, 117° | 881 W/m² | - |
| 1778002244 | 26.11° C | 49% | 1016 hPa | 0 mm | 2.68 m/s, 160° | 825 W/m² | - |
| 1778001942 | 25.56° C | 50% | 1016 hPa | 0 mm | 1.34 m/s, 183° | 863 W/m² | - |
| 1778001638 | 26.11° C | 50% | 1016.2 hPa | 0 mm | 2.68 m/s, 211° | 852 W/m² | - |
| 1778001333 | 25.56° C | 51% | 1016.3 hPa | 0 mm | 1.79 m/s, 239° | 886 W/m² | - |
| 1778001030 | 25.56° C | 52% | 1016.4 hPa | 0 mm | 1.79 m/s, 191° | 862 W/m² | - |
| 1778000727 | 25.56° C | 51% | 1016.1 hPa | 0 mm | 2.24 m/s, 221° | 832 W/m² | - |
| 1778000424 | 25.56° C | 50% | 1016.3 hPa | 0 mm | 3.13 m/s, 235° | 835 W/m² | - |
| 1778000119 | 25° C | 52% | 1016.4 hPa | 0 mm | 3.13 m/s, 241° | 827 W/m² | - |
| 1777999815 | 25° C | 52% | 1016.5 hPa | 0 mm | 4.02 m/s, 173° | 826 W/m² | - |
| 1777999511 | 25° C | 53% | 1016.5 hPa | 0 mm | 2.24 m/s, 137° | 829 W/m² | - |
| 1777999209 | 25° C | 53% | 1016.5 hPa | 0 mm | 2.24 m/s, 215° | 818 W/m² | - |
| 1777998907 | 25° C | 54% | 1016.4 hPa | 0 mm | 2.68 m/s, 152° | 805 W/m² | - |
| 1777998603 | 25° C | 54% | 1016.3 hPa | 0 mm | 3.13 m/s, 136° | 806 W/m² | - |
| 1777998297 | 25° C | 53% | 1016.5 hPa | 0 mm | 3.13 m/s, 199° | 802 W/m² | - |
| 1777997994 | 24.44° C | 54% | 1016.5 hPa | 0 mm | 3.58 m/s, 160° | 803 W/m² | - |
| 1777997690 | 24.44° C | 54% | 1016.5 hPa | 0 mm | 1.79 m/s, 141° | 795 W/m² | - |
* Rain latest hour (hover to see other rain measurements)
** Current wind speed in m/s (hover to see current wind gust speed)